Weather History for Ogallala, NE

Change the Weather History Date:

Sunday, June 8, 2014

  Actual Average Record
Temperature  
Mean Temperature 58 °F -  
Max Temperature 67 °F 81 °F 101 °F (1988)
Min Temperature 49 °F 54 °F 35 °F (2007)
Degree Days  
Heating Degree Days 8    
Growing Degree Days 8 (Base 50)    
Moisture  
Dew Point 52 °F    
Average Humidity 82    
Maximum Humidity 92    
Minimum Humidity 68    
Precipitation  
Precipitation 1.93 in - - ()
Sea Level Pressure  
Sea Level Pressure 30.00 in    
Wind  
Wind Speed 12 mph (ESE)    
Max Wind Speed 41 mph    
Max Gust Speed 51 mph    
Visibility 9 miles    
Events Rain , Thunderstorm    
Averages and records for this station are not official NWS values.
T = Trace of Precipitation, MM = Missing Value Source: NWS Daily Summary

Daily Weather History Graph

Daily Weather History Graph

Search for Another Location

Airport:

Trip Planner

Search our weather history database for the weather conditions in past years. The results will help you decide how hot, cold, wet, or windy it might be!

Date:

Astronomy

Jun. 08, 2014 Rise Set
Actual Time 5:14 AM MDT 8:18 PM MDT
Civil Twilight 4:41 AM MDT 8:51 PM MDT
Nautical Twilight 3:58 AM MDT 9:34 PM MDT
Astronomical Twilight 3:08 AM MDT 10:24 PM MDT
Moon 3:36 PM MDT (6/8) 2:11 AM MDT (6/8)
Length of Visible Light 16h 10m
Length of Day
15h 03m
Waxing Gibbous, 77% of the Moon is Illuminated
Jun 8
Waxing Gibbous
Jun 12
Full
Jun 19
Last Quarter
Jun 27
New
Jul 5
First Quarter

Hourly Weather History & Observations

Time (MDT) Temp. Dew Point Humidity Pressure Visibility Wind Dir Wind Speed Gust Speed Precip Events Conditions
12:15 AM 56.8 °F 49.5 °F 76% 30.14 in 10.0 mi East 10.4 mph - N/A   Overcast
12:35 AM 56.8 °F 49.6 °F 77% 30.14 in 10.0 mi East 9.2 mph - N/A   Overcast
12:55 AM 56.5 °F 50.0 °F 79% 30.12 in 10.0 mi East 9.2 mph - N/A   Overcast
1:15 AM 56.5 °F 50.0 °F 79% 30.11 in 10.0 mi East 8.1 mph - N/A   Overcast
1:35 AM 56.3 °F 49.8 °F 79% 30.11 in 10.0 mi East 12.7 mph - N/A   Overcast
1:55 AM 56.3 °F 49.8 °F 79% 30.10 in 10.0 mi East 8.1 mph - N/A   Overcast
2:15 AM 56.1 °F 49.8 °F 79% 30.08 in 10.0 mi East 11.5 mph - N/A   Overcast
2:35 AM 55.8 °F 49.8 °F 80% 30.08 in 10.0 mi East 9.2 mph - N/A   Overcast
2:55 AM 55.8 °F 50.0 °F 81% 30.08 in 10.0 mi East 9.2 mph - N/A   Overcast
3:15 AM 55.8 °F 50.0 °F 81% 30.07 in 10.0 mi ESE 10.4 mph - N/A   Overcast
3:35 AM 55.8 °F 50.0 °F 81% 30.07 in 10.0 mi ESE 10.4 mph - N/A   Overcast
3:55 AM 55.8 °F 50.0 °F 81% 30.07 in 10.0 mi ESE 8.1 mph - N/A   Overcast
4:15 AM 55.8 °F 50.0 °F 81% 30.07 in 10.0 mi SE 8.1 mph - N/A   Overcast
4:35 AM 55.8 °F 50.0 °F 81% 30.07 in 10.0 mi ESE 6.9 mph - N/A   Overcast
4:55 AM 55.8 °F 50.0 °F 81% 30.07 in 10.0 mi ESE 9.2 mph - N/A   Overcast
5:15 AM 55.8 °F 50.5 °F 83% 30.07 in 10.0 mi ESE 5.8 mph - N/A   Overcast
5:35 AM 55.8 °F 50.9 °F 84% 30.07 in 10.0 mi SE 5.8 mph - N/A   Overcast
5:55 AM 55.9 °F 51.1 °F 84% 30.07 in 10.0 mi SE 6.9 mph - N/A   Overcast
6:15 AM 55.8 °F 50.7 °F 83% 30.07 in 10.0 mi ESE 9.2 mph - N/A   Overcast
6:35 AM 55.8 °F 50.9 °F 84% 30.06 in 10.0 mi SE 10.4 mph - N/A   Overcast
6:55 AM 55.8 °F 49.8 °F 80% 30.08 in 10.0 mi SSE 10.4 mph 18.4 mph N/A   Overcast
7:15 AM 55.4 °F 49.3 °F 80% 30.08 in 10.0 mi SE 10.4 mph - N/A   Overcast
7:35 AM 55.6 °F 49.5 °F 80% 30.07 in 10.0 mi SE 12.7 mph 20.7 mph N/A   Overcast
7:55 AM 55.6 °F 49.6 °F 80% 30.07 in 10.0 mi ESE 12.7 mph 16.1 mph N/A   Overcast
8:35 AM 56.1 °F 49.8 °F 79% 30.07 in 10.0 mi SSE 15.0 mph 20.7 mph N/A   Overcast
8:55 AM 55.9 °F 50.0 °F 80% 30.07 in 10.0 mi SSE 9.2 mph 19.6 mph N/A   Overcast
9:15 AM 55.8 °F 50.5 °F 83% 30.06 in 10.0 mi SSE 11.5 mph 20.7 mph N/A   Overcast
9:35 AM 55.4 °F 51.3 °F 86% 30.05 in 7.0 mi SSE 11.5 mph 18.4 mph N/A   Overcast
9:55 AM 55.4 °F 52.5 °F 90% 30.04 in 4.0 mi SSE 9.2 mph - N/A   Overcast
10:15 AM 56.5 °F 52.7 °F 87% 30.04 in 10.0 mi SSE 10.4 mph 23.0 mph N/A   Overcast
10:35 AM 56.8 °F 52.0 °F 84% 30.03 in 10.0 mi SE 13.8 mph 19.6 mph N/A   Overcast
10:55 AM 57.6 °F 52.2 °F 82% 30.04 in 10.0 mi SE 10.4 mph - N/A   Overcast
11:15 AM 57.7 °F 52.2 °F 82% 30.04 in 10.0 mi SE 11.5 mph - N/A   Overcast
11:35 AM 58.1 °F 52.7 °F 82% 30.03 in 10.0 mi SE 9.2 mph - N/A   Overcast
11:55 AM 58.6 °F 52.2 °F 79% 30.02 in 10.0 mi SE 8.1 mph - N/A Thunderstorm Overcast
12:15 PM 59.7 °F 52.7 °F 78% 30.00 in 10.0 mi SE 12.7 mph 16.1 mph N/A Thunderstorm Overcast
12:35 PM 60.1 °F 53.2 °F 78% 29.98 in 10.0 mi SSE 16.1 mph 20.7 mph N/A Thunderstorm Thunderstorm
12:55 PM 61.5 °F 53.6 °F 75% 29.97 in 10.0 mi SSE 15.0 mph 19.6 mph N/A   Overcast
1:15 PM 64.4 °F 54.5 °F 70% 29.95 in 10.0 mi South 16.1 mph 21.9 mph N/A   Overcast
1:35 PM 66.0 °F 55.0 °F 68% 29.94 in 10.0 mi SSE 21.9 mph 26.5 mph N/A   Overcast
1:55 PM 65.1 °F 54.7 °F 69% 29.95 in 10.0 mi SSE 12.7 mph 24.2 mph N/A Thunderstorm Mostly Cloudy
2:15 PM 64.4 °F 55.2 °F 72% 29.94 in 10.0 mi South 8.1 mph 17.3 mph N/A Thunderstorm Overcast
2:35 PM 64.6 °F 55.6 °F 73% 29.93 in 10.0 mi SSE 11.5 mph - N/A Rain Light Rain
2:55 PM 64.6 °F 55.0 °F 71% 29.91 in 10.0 mi SSE 12.7 mph 17.3 mph N/A Thunderstorm Overcast
3:15 PM 63.0 °F 55.9 °F 78% 29.91 in 10.0 mi SSE 10.4 mph 16.1 mph N/A   Drizzle
3:35 PM 62.6 °F 57.4 °F 83% 29.91 in 10.0 mi SSE 8.1 mph - N/A   Overcast
3:55 PM 63.0 °F 57.4 °F 82% 29.90 in 10.0 mi SE 10.4 mph - N/A   Overcast
4:15 PM 63.0 °F 57.4 °F 82% 29.90 in 10.0 mi SE 8.1 mph - N/A   Overcast
4:35 PM 63.9 °F 56.8 °F 78% 29.88 in 10.0 mi SE 10.4 mph 16.1 mph N/A Thunderstorm Overcast
4:55 PM 64.0 °F 56.8 °F 77% 29.88 in 10.0 mi SSE 9.2 mph 17.3 mph N/A   Overcast
5:15 PM 63.9 °F 56.3 °F 76% 29.89 in 10.0 mi SE 6.9 mph 17.3 mph N/A Thunderstorm Overcast
5:35 PM 63.7 °F 55.9 °F 76% 29.88 in 10.0 mi SE 8.1 mph - N/A Thunderstorm Overcast
5:55 PM 62.6 °F 56.7 °F 81% 29.87 in 10.0 mi SE 11.5 mph 16.1 mph N/A Rain Light Rain
6:15 PM 62.6 °F 56.7 °F 81% 29.87 in 10.0 mi SE 8.1 mph - N/A Thunderstorm Overcast
6:35 PM 62.8 °F 56.7 °F 80% 29.87 in 10.0 mi SE 9.2 mph - N/A   Overcast
6:55 PM 62.6 °F 57.2 °F 82% 29.86 in 10.0 mi SE 9.2 mph - N/A Rain , Thunderstorm Rain
7:15 PM 61.7 °F 57.4 °F 86% 29.86 in 5.0 mi SE 8.1 mph - 0.04 in Rain Heavy Rain
7:35 PM 60.4 °F 58.1 °F 92% 29.88 in 1.8 mi NNE 4.6 mph - 0.50 in Rain Heavy Rain
7:55 PM 51.4 °F 48.4 °F 89% 29.89 in 1.2 mi North 34.5 mph 44.9 mph 0.81 in Rain , Thunderstorm Heavy Thunderstorms and Rain
8:15 PM 49.6 °F 47.5 °F 92% 29.92 in 1.5 mi North 41.4 mph 50.6 mph 0.24 in Rain , Thunderstorm Heavy Thunderstorms and Rain
8:35 PM 49.6 °F 47.5 °F 92% 29.93 in 2.0 mi North 40.3 mph 48.3 mph 0.42 in Rain Heavy Rain
8:55 PM 49.8 °F 47.5 °F 92% 29.95 in 2.5 mi NNE 27.6 mph 38.0 mph 0.54 in Rain Rain
9:15 PM 50.0 °F 47.7 °F 92% 29.97 in 2.0 mi NE 27.6 mph 40.3 mph 0.16 in Rain Rain
9:35 PM 50.9 °F 48.7 °F 92% 29.96 in 5.0 mi NE 25.3 mph 35.7 mph 0.25 in Rain Rain
9:55 PM 51.3 °F 49.1 °F 92% 29.96 in 5.0 mi NNE 26.5 mph 34.5 mph 0.35 in Rain Heavy Rain
10:15 PM 50.9 °F 48.6 °F 92% 29.97 in 4.0 mi NNE 20.7 mph 33.4 mph 0.07 in Rain Rain
10:35 PM 49.8 °F 47.5 °F 92% 29.98 in 5.0 mi NNE 20.7 mph 31.1 mph 0.12 in Rain Rain
10:55 PM 49.3 °F 47.1 °F 92% 29.97 in 10.0 mi NNE 23.0 mph 32.2 mph 0.14 in Rain Light Rain
11:15 PM 49.1 °F 46.8 °F 92% 29.98 in 7.0 mi NNE 25.3 mph 33.4 mph 0.02 in Rain Light Rain
11:35 PM 49.1 °F 46.6 °F 91% 29.97 in 5.0 mi NNE 27.6 mph 33.4 mph 0.04 in Rain Rain
11:55 PM 49.1 °F 46.6 °F 91% 29.97 in 5.0 mi NNE 25.3 mph 33.4 mph 0.09 in Rain Rain